Regional Weather Roundup
Issued by NWS

Home | Current Version | Previous Version | Text Only | Print | Product List | Glossary Off
Versions: 1 2 3 4 5 6 7 8 9 10 11 12 13 14 15 16 17 18 19 20 21 22 23 24 25 26 27

000
ASUS43 KDMX 240807
RWRIA

WEATHER ROUNDUP FOR IOWA
NATIONAL WEATHER SERVICE DES MOINES IA
300 AM CDT FRI OCT 24 2014

NOTE: "FAIR" INDICATES FEW OR NO CLOUDS BELOW 12,000 FEET WITH NO
SIGNIFICANT WEATHER AND/OR OBSTRUCTIONS TO VISIBILITY.

* - THESE STATIONS ARE NOT NWS STATIONS...THUS NOT UNDER NWS
QUALITY CONTROL.  THEY ALSO DO NOT REPORT WEATHER SUCH
AS PRECIPITATION OR FOG.

IAZ001>003-012>014-020>022-031>034-043>046-240900-
   NORTHWEST IOWA

CITY           SKY/WX    TMP DP  RH WIND       PRES   REMARKS
CARROLL *      PTCLDY    50  46  87 S6        29.99S
CHEROKEE *     PTCLDY    50  48  93 S5        29.95F
DENISON *      CLEAR     54  50  87 S5        29.96F
LE MARS *      CLEAR     55  50  82 S7        29.92F
ORANGE CITY *  CLEAR     55  46  71 S8        29.92F
SHELDON *      CLEAR     50  46  87 S7        29.91F
SIOUX CITY     PTCLDY    52  48  86 SE8       29.93F
SPENCER        PTCLDY    47  43  86 S8        29.94F
STORM LAKE *   CLEAR     50  46  87 S9        29.97F
$$

IAZ055>058-069>071-079>083-090>094-240900-
   SOUTHWEST IOWA

CITY           SKY/WX    TMP DP  RH WIND       PRES   REMARKS
AUDUBON *      CLEAR     46  43  87 CALM      30.01F
CLARINDA *     FOG       57  57 100 S6        30.04S VSB 0
COUNCIL BLFS * CLEAR     59  59 100 S9        29.98F
CRESTON *      FOG       57  57 100 S9        30.04S VSB 1/4
HARLAN  *      CLEAR     48  48 100 CALM      30.03S
LAMONI         FOG       58  57  97 SW10      30.04S VSB 1/4
RED OAK *      FOG       55  54  94 S5        30.01F VSB 3/4
SHENANDOAH *   FOG       54  54 100 S3        30.02F VSB 0
$$

IAZ047>049-059>061-072>074-084-240900-
   CENTRAL IOWA

CITY           SKY/WX    TMP DP  RH WIND       PRES   REMARKS
AMES           FOG       48  47  96 SE3       30.02S VSB 1/4
ANKENY *       FOG       52  52 100 SE3       30.02S VSB 0
CHARITON *     FOG       57  57 100 S7        30.05S VSB 0
DES MOINES     FOG       51  49  92 S8        30.03S VSB 1/4
GRINNELL*      FOG       52  52 100 CALM      30.05R VSB<1/4
KNOXVILLE *    FOG       55  54  94 SW7       30.03S VSB<1/4
MARSHALLTOWN   FOG       42  42 100 E6        30.02S VSB 1/4
PELLA *        FOG       54  54 100 SW7       30.06S VSB 1/4
PERRY *          N/A     46  46 100 SE5       30.01S
$$

IAZ004>006-015-016-023>025-035-036-240900-
   NORTH CENTRAL IOWA

CITY           SKY/WX    TMP DP  RH WIND       PRES   REMARKS
ALGONA *       CLEAR     50  45  81 S12       29.98S
CLARION *      CLEAR     50  50 100 S8        29.99F
ESTHERVILLE    MOCLDY    44  40  85 S8        29.95F
FORT DODGE *   PTCLDY    50  43  76 CALM      30.00S
FOREST CITY *  CLEAR     43  43 100 CALM      29.99F FOG
IOWA FALLS *   FOG       46  46 100 SE5       30.02F VSB 1/4
$$

IAZ007>011-017>019-026>030-037>042-050>054-066-240900-
   NORTHEAST IOWA

CITY           SKY/WX    TMP DP  RH WIND       PRES   REMARKS
CEDAR RAPIDS   FOG       42  42 100 CALM      30.04S VSB 1/4
CHARLES CITY * FOG       48  48 100 SE5       30.02F VSB 0
CLINTON *        N/A     39  37  93 W3        30.08R VSB<1/4
DECORAH *      FOG       50  50 100 S5        30.03S VSB 0
DUBUQUE        CLOUDY    50  50 100 N3        30.06R FOG
MONTICELLO *   FOG       46  46 100 CALM      30.05S VSB 3/4
OELWEIN *      FOG       50  50 100 SE5       30.05S VSB 0
WATERLOO       FOG       47  47 100 SE5       30.03S VSB 1/4
$$

IAZ064-065-067-068-078-240900-
   EAST CENTRAL IOWA

CITY           SKY/WX    TMP DP  RH WIND       PRES   REMARKS
DAVENPORT      FOG       43  42  97 CALM      30.06R VSB 1/4
IOWA CITY      FOG       47  47 100 W3        30.06S VSB 1/4
MT. PLEASANT * FOG       50  50 100 CALM      30.06S VSB<1/4
MUSCATINE *    CLOUDY    46  45  93 CALM      30.06S FOG
QUAD CITIES    MOCLDY    42  41  96 CALM      30.05S FOG
$$

IAZ062-063-075>077-085>089-095>099-240900-
   SOUTHEAST IOWA

CITY           SKY/WX    TMP DP  RH WIND       PRES   REMARKS
BURLINGTON     CLOUDY    54  52  93 SW3       30.06R
FAIRFIELD *    CLOUDY    46  45  93 CALM      30.06R
FORT MADISON * FOG       54  54 100 CALM      30.07S VSB 1/4
KEOKUK *       FOG       54  54 100 SW7       30.06S VSB 0
OSKALOOSA *    FOG       48  46  93 SW3       30.05S VSB 1/4
CENTERVILLE *  FOG       55  55 100 SW5       30.07S VSB 3/4
OTTUMWA        FOG       49  48  97 S3        30.05R VSB 1/4
WASHINGTON *   FOG       46  46 100 W5        30.05S VSB 0
$$

ABBREVIATIONS USED IN REMARKS
   TC - TEMPERATURES IN CELSIUS
  WCI - WIND CHILL INDEX
   HX - HEAT INDEX
  VSB - VISIBILITY
$$




USA.gov is the U.S. government's official web portal to all federal, state and local government web resources and services.